Back to catalog

KUIPER-00160

AliveCommunicationsLEO
NORAD 67765·PAYLOAD·🇺🇸 United States

Launched Feb 12, 2026 from Guiana Space Centre

Loading…

Next Passes (next 24 hours)

TLE

FreshSource: CelesTrak SupGP

Epoch: Sep 14, 2026, 16:36 UTC

1 67765C 26030B   26257.69206019 -.00666600  00000+0 -76617-1 0  2577
2 67765  51.8989  29.9879 0011537 349.3551 328.2957 14.85947529    15

Track KUIPER-00160 in real time with AllMySat

Download on the App Store